GW1561 Weather Reports


Display with metric or nautical units.
time (UTC)temp
F
wind
direction
speed
MPH
gust
MPH
rain 1hr
in
rain 24hr
in
rain mn
in
humidity
%
barometer
mb
20260504044537 45 312 0.0 0.0 0.00 0.00 0.00 85 985.1
20260504043915 45 331 0.0 0.0 0.00 0.00 0.00 84 985.1
20260504042719 45 333 0.0 0.0 0.00 0.00 0.00 85 984.4
20260504042142 44 340 0.0 0.0 0.00 0.00 0.00 85 984.4
20260504041542 44 340 0.0 0.0 0.00 0.00 0.00 84 984.4
20260504040949 44 340 0.0 0.0 0.00 0.00 0.00 84 984.4
20260504035738 44 333 0.0 0.0 0.00 0.00 0.00 85 984.4
20260504035142 44 336 0.0 0.0 0.00 0.00 0.00 85 984.7
20260504033953 44 336 0.0 0.0 0.00 0.00 0.00 84 984.7
20260504033342 44 333 0.0 0.0 0.00 0.00 0.00 85 984.7
20260504032714 44 334 0.0 0.0 0.00 0.00 0.00 84 984.4
20260504032125 44 326 0.0 0.0 0.00 0.00 0.00 85 984.0
20260504031536 44 329 0.0 0.0 0.00 0.00 0.00 85 984.0
20260504030952 44 331 0.0 0.0 0.00 0.00 0.00 86 984.4
20260504030354 44 331 0.0 0.0 0.00 0.00 0.00 85 984.4
20260504025115 45 331 0.0 0.0 0.00 0.00 0.00 83 984.7
20260504024555 45 331 0.0 0.0 0.00 0.00 0.00 82 984.4
20260504023317 46 331 0.0 0.0 0.00 0.00 0.00 81 984.0
20260504022747 47 331 0.0 0.0 0.00 0.00 0.00 80 984.0
20260504021538 48 329 0.0 0.0 0.00 0.00 0.00 79 984.0
20260504020353 48 329 0.0 0.0 0.00 0.00 0.00 76 984.0
20260504015734 48 323 0.0 0.0 0.00 0.00 0.00 76 984.0
20260504015121 48 324 0.0 0.0 0.00 0.00 0.00 77 984.0
20260504014530 48 329 0.0 0.0 0.00 0.00 0.00 77 984.4
20260504013925 49 329 0.0 0.0 0.00 0.00 0.00 77 984.0
20260504013334 49 329 0.0 0.0 0.00 0.00 0.00 76 984.0
20260504012735 50 329 0.0 0.0 0.00 0.00 0.00 73 984.4
20260504011522 51 329 0.0 0.0 0.00 0.00 0.00 71 984.0
20260504010939 51 329 0.0 0.0 0.00 0.00 0.00 69 984.0
20260504010354 52 330 0.0 0.0 0.00 0.00 0.00 69 984.0
20260504005728 52 331 0.0 0.0 0.00 0.00 0.00 70 984.0
20260504004531 52 329 0.0 0.0 0.00 0.00 0.00 69 983.7
20260504003953 52 329 0.0 0.0 0.00 0.00 0.00 68 984.0
20260504003337 53 329 0.0 0.0 0.00 0.00 0.00 67 983.7
20260504002742 53 329 0.0 0.0 0.00 0.00 0.00 68 984.0
20260504002127 54 329 0.0 0.0 0.00 0.00 0.00 67 983.7
20260504001533 54 329 0.0 0.0 0.00 0.00 0.00 63 983.7
20260504000928 54 331 0.0 0.0 0.00 0.00 0.00 64 983.7
20260504000328 55 331 0.0 0.0 0.00 0.00 0.00 57 984.0
20260503234521 57 329 0.0 0.0 0.00 0.00 0.00 58 983.7
20260503231524 59 327 0.0 0.0 0.00 0.00 0.00 53 984.0
20260503230953 59 323 0.0 0.0 0.00 0.00 0.00 51 984.0
20260503230351 59 335 0.0 0.0 0.00 0.00 0.00 41 984.0
20260503225724 60 335 0.0 0.0 0.00 0.00 0.00 41 984.0
20260503225148 60 304 1.0 2.0 0.00 0.00 0.00 38 984.0
20260503224527 60 336 0.0 0.0 0.00 0.00 0.00 38 984.4
20260503223912 60 342 0.0 0.0 0.00 0.00 0.00 41 984.0
20260503223351 60 333 1.0 2.0 0.00 0.00 0.00 40 984.0
20260503222727 60 344 0.0 0.0 0.00 0.00 0.00 39 984.4
20260503222144 60 312 1.0 1.0 0.00 0.00 0.00 39 984.4
20260503221527 59 312 0.0 0.0 0.00 0.00 0.00 43 984.4
20260503220909 60 328 0.0 2.0 0.00 0.00 0.00 40 984.4
20260503220333 60 333 0.0 3.0 0.00 0.00 0.00 36 984.4
20260503215723 60 132 4.0 6.0 0.00 0.00 0.00 35 984.4
20260503215141 61 224 2.0 7.0 0.00 0.00 0.00 34 984.4
20260503214519 61 351 0.0 1.0 0.00 0.00 0.00 34 984.4
20260503213944 61 333 1.0 4.0 0.00 0.00 0.00 37 984.4
20260503213328 61 213 5.0 7.0 0.00 0.00 0.00 35 984.4
20260503212750 61 301 2.0 3.0 0.00 0.00 0.00 38 984.4
20260503212128 61 6 2.0 3.0 0.00 0.00 0.00 36 984.4
20260503211543 61 341 0.0 2.0 0.00 0.00 0.00 37 984.4
20260503210933 60 255 4.0 4.0 0.00 0.00 0.00 35 984.4
20260503210349 60 206 3.0 6.0 0.00 0.00 0.00 38 984.4
20260503205719 61 223 2.0 4.0 0.00 0.00 0.00 38 984.4
20260503203914 60 325 1.0 4.0 0.00 0.00 0.00 35 984.7
20260503203343 60 254 2.0 8.0 0.00 0.00 0.00 36 984.7
20260503202733 60 220 6.0 9.0 0.00 0.00 0.00 35 985.1
20260503202127 61 9 1.0 4.0 0.00 0.00 0.00 34 984.7
20260503201509 61 262 1.0 2.0 0.00 0.00 0.00 38 985.1
20260503200953 60 204 4.0 6.0 0.00 0.00 0.00 37 985.1
20260503200321 60 318 2.0 3.0 0.00 0.00 0.00 38 985.1
20260503195119 60 43 2.0 4.0 0.00 0.00 0.00 40 985.7
20260503194527 60 214 2.0 4.0 0.00 0.00 0.00 41 985.7
20260503193935 60 216 4.0 8.0 0.00 0.00 0.00 36 985.7
20260503193341 60 340 0.0 1.0 0.00 0.00 0.00 42 985.7
20260503192753 60 181 6.0 7.0 0.00 0.00 0.00 40 986.1
20260503192120 61 293 1.0 2.0 0.00 0.00 0.00 37 986.4
20260503190909 61 230 2.0 8.0 0.00 0.00 0.00 40 986.4
20260503185750 62 337 1.0 4.0 0.00 0.00 0.00 36 986.7
20260503185141 60 337 0.0 4.0 0.00 0.00 0.00 36 986.4
20260503184540 62 228 3.0 7.0 0.00 0.00 0.00 37 986.7
20260503183353 61 279 3.0 7.0 0.00 0.00 0.00 37 986.7
20260503182749 61 326 0.0 2.0 0.00 0.00 0.00 37 987.1
20260503182146 61 226 2.0 6.0 0.00 0.00 0.00 38 987.1
20260503181545 60 54 1.0 4.0 0.00 0.00 0.00 38 987.1
20260503180335 59 230 3.0 3.0 0.00 0.00 0.00 40 987.4
20260503175731 59 331 2.0 9.0 0.00 0.00 0.00 38 987.1
20260503175123 59 253 2.0 4.0 0.00 0.00 0.00 37 987.1
20260503174550 59 341 0.0 2.0 0.00 0.00 0.00 39 987.4
20260503173918 57 355 2.0 6.0 0.00 0.00 0.00 39 987.4
20260503173309 56 312 1.0 3.0 0.00 0.00 0.00 41 987.8
20260503172730 58 0 1.0 9.0 0.00 0.00 0.00 45 987.4
20260503172124 59 214 3.0 6.0 0.00 0.00 0.00 40 987.8
20260503171538 60 2 1.0 1.0 0.00 0.00 0.00 36 987.8
20260503170935 59 1 0.0 2.0 0.00 0.00 0.00 39 987.8
20260503170347 58 318 2.0 6.0 0.00 0.00 0.00 40 987.8
20260503150929 53 342 0.0 7.0 0.00 0.00 0.00 50 989.1
20260503150317 55 200 3.0 4.0 0.00 0.00 0.00 52 989.1
20260503130953 38 331 0.0 1.0 0.00 0.00 0.00 97 989.5
20260503110340 30 333 0.0 0.0 0.00 0.00 0.00 97 988.4
20260503081547 32 333 0.0 0.0 0.00 0.00 0.00 96 987.1
20260503080949 32 333 0.0 0.0 0.00 0.00 0.00 96 987.1
20260503072739 33 333 0.0 0.0 0.00 0.00 0.00 96 986.7
20260503072130 34 333 0.0 0.0 0.00 0.00 0.00 95 986.7
20260503071549 34 333 0.0 0.0 0.00 0.00 0.00 96 986.7
20260503070936 34 333 0.0 0.0 0.00 0.00 0.00 95 986.7
20260503070324 34 333 0.0 0.0 0.00 0.00 0.00 95 986.4
20260503054554 37 336 0.0 0.0 0.00 0.00 0.00 92 986.7
20260503053919 38 333 0.0 0.0 0.00 0.00 0.00 91 986.7
20260503053347 38 340 0.0 0.0 0.00 0.00 0.00 90 986.7
20260503052747 38 340 0.0 0.0 0.00 0.00 0.00 90 986.7
20260503051524 39 340 0.0 0.0 0.00 0.00 0.00 88 986.7
20260503050931 40 340 0.0 0.0 0.00 0.00 0.00 88 986.4
20260503050352 40 340 0.0 0.0 0.00 0.00 0.00 89 986.4
20260503045715 40 340 0.0 0.0 0.00 0.00 0.00 88 986.4